Grayling, MI

7:23 AM EDT on June 21, 2018 (GMT -0400)
Grayling

Weather History for KGOV - June, 2018

Change the Weather History Date:

Thursday, June 14, 2018

  Actual Average (KHTL) Record (KHTL)
Temperature  
Mean Temperature 64 °F -  
Max Temperature 80 °F 76 °F 95 °F (1987)
Min Temperature 49 °F 52 °F 32 °F (1946)
Growing Degree Days 14 (Base 50)    
Moisture  
Dew Point 44 °F    
Average Humidity 49    
Maximum Humidity 87    
Minimum Humidity 21    
Precipitation  
Precipitation 0.00 in - - ()
Sea Level Pressure  
Sea Level Pressure 30.04 in    
Wind  
Wind Speed 8 mph (NW)    
Max Wind Speed 18 mph    
Max Gust Speed 25 mph    
Visibility 9 miles    
Events Rain    
Averages and records for this station are not official NWS values.
T = Trace of Precipitation, MM = Missing Value Source: NWS Daily Summary

Daily Weather History Graph

Daily Weather History Graph

Search for Another Location

Airport or City:

Astronomy

Jun. 14, 2018 Rise Set
Actual Time 5:52 AM EDT 9:25 PM EDT
Civil Twilight 5:15 AM EDT 10:02 PM EDT
Nautical Twilight 4:27 AM EDT 10:51 PM EDT
Astronomical Twilight 3:23 AM EDT 11:55 PM EDT
Moon 6:52 AM EDT (6/14) 10:23 PM EDT (6/14)
Length of Visible Light 16h 46m
Length of Day
15h 32m
New Moon, 1% of the Moon is Illuminated
Jun 14
New Moon
Jun 20
First Quarter
Jun 28
Full
Jul 6
Last Quarter
Jul 12
New

Hourly Weather History & Observations

Time (EDT) Temp. Dew Point Humidity Pressure Visibility Wind Dir Wind Speed Gust Speed Precip Events Conditions
12:58 AM 56.3 °F 45.5 °F 67% 29.98 in 10.0 mi WSW 5.8 mph - N/A   Clear
1:58 AM 55.6 °F 46.6 °F 72% 29.98 in 9.0 mi West 4.6 mph - N/A   Clear
2:58 AM 53.1 °F 46.8 °F 79% 29.98 in 9.0 mi West 5.8 mph - N/A   Clear
3:58 AM 51.4 °F 46.6 °F 83% 30.00 in 9.0 mi West 4.6 mph - N/A   Clear
4:58 AM 51.3 °F 46.8 °F 85% 30.02 in 9.0 mi West 4.6 mph - N/A   Clear
5:58 AM 49.8 °F 46.2 °F 87% 30.02 in 7.0 mi West 5.8 mph - N/A   Clear
6:58 AM 52.9 °F 47.7 °F 82% 30.04 in 6.0 mi West 6.9 mph - N/A   Haze
7:58 AM 57.6 °F 48.6 °F 72% 30.06 in - WNW 5.8 mph - N/A   Clear
8:58 AM 63.7 °F 49.1 °F 59% 30.05 in 10.0 mi West 9.2 mph - N/A   Clear
9:58 AM 70.7 °F 47.5 °F 44% 30.05 in 10.0 mi WNW 9.2 mph - N/A   Clear
10:58 AM 74.1 °F 43.9 °F 34% 30.06 in 10.0 mi NW 11.5 mph - N/A   Clear
11:58 AM 75.9 °F 41.4 °F 29% 30.06 in 10.0 mi NNW 15.0 mph - N/A   Clear
12:03 PM 75.2 °F 41.0 °F 29% 30.06 in 10.0 mi NNW 13.8 mph - N/A   Clear
12:58 PM 77.4 °F 41.5 °F 28% 30.07 in 10.0 mi North 13.8 mph 21.9 mph N/A   Partly Cloudy
1:58 PM 79.0 °F 43.0 °F 28% 30.06 in 10.0 mi North 12.7 mph 20.7 mph N/A   Partly Cloudy
2:53 PM 80.6 °F 39.2 °F 23% 30.06 in 10.0 mi North 18.4 mph 25.3 mph N/A   Clear
2:58 PM 80.1 °F 37.6 °F 22% 30.06 in 10.0 mi North 15.0 mph 25.3 mph N/A   Clear
3:39 PM 80.6 °F 37.4 °F 21% 30.05 in 10.0 mi NW 13.8 mph 19.6 mph N/A   Clear
3:58 PM 80.1 °F 38.3 °F 22% 30.06 in 10.0 mi NNW 15.0 mph 20.7 mph N/A   Partly Cloudy
4:51 PM 78.8 °F 37.4 °F 23% 30.05 in 10.0 mi NNW 15.0 mph 21.9 mph N/A   Clear
4:58 PM 79.3 °F 38.8 °F 23% 30.05 in 10.0 mi North 12.7 mph 21.9 mph N/A   Clear
4:59 PM 78.8 °F 37.4 °F 23% 30.06 in 10.0 mi North 13.8 mph 21.9 mph N/A   Clear
5:58 PM 78.4 °F 39.2 °F 24% 30.06 in 10.0 mi North 9.2 mph - N/A   Clear
6:58 PM 76.6 °F 40.6 °F 27% 30.04 in 10.0 mi NW 8.1 mph - N/A   Clear
7:58 PM 74.5 °F 43.3 °F 33% 30.03 in 10.0 mi NW 6.9 mph - N/A   Clear
8:58 PM 69.1 °F 45.7 °F 43% 30.04 in 10.0 mi NNW 3.5 mph - N/A   Clear
9:51 PM 60.8 °F 48.2 °F 63% 30.03 in 5.0 mi Calm Calm - N/A Rain Light Rain
9:58 PM 60.3 °F 48.2 °F 64% 30.03 in 6.0 mi Calm Calm - 0.00 in Rain Light Rain
9:59 PM 59.0 °F 48.2 °F 67% 30.04 in 7.0 mi Calm Calm - N/A   Clear
10:58 PM 54.5 °F 48.4 °F 80% 30.06 in 9.0 mi Calm Calm - 0.00 in   Clear
11:58 PM 51.6 °F 47.5 °F 86% 30.09 in 10.0 mi Calm Calm - N/A   Clear